Regional Weather Roundup
Issued by NWS

Home | Current Version | Previous Version | Text Only | Print | Product List | Glossary On
Versions: 1 2 3 4 5 6 7 8 9 10 11 12 13 14 15 16 17 18 19 20 21 22 23 24 25 26 27 28 29 30 31 32 33 34 35 36 37 38 39 40 41 42 43 44 45 46 47 48 49 50
000
ASUS43 KLSX 230607
RWRMO

WEATHER SUMMARY FOR MISSOURI
NATIONAL WEATHER SERVICE SPRINGFIELD MO
100 AM CDT WED AUG 23 2017

NOTE: "FAIR" INDICATES FEW OR NO CLOUDS BELOW 12,000 FEET WITH NO
       SIGNIFICANT WEATHER AND/OR OBSTRUCTIONS TO VISIBILITY.
       CURRENT SKY AND/OR WEATHER CONDITIONS ARE NOT AVAILABLE FOR
       CHILLICOTHE AND FARMINGTON.

MOZ001>031-035>038-043-044-053-054-230700-
...NORTHERN AND WESTERN MISSOURI...

CITY           SKY/WX    TMP DP  RH WIND       PRES   REMARKS
KANSAS CTY INT CLEAR     59  53  80 NE5       30.16R
6HR MIN TEMP:  59; 6HR MAX TEMP:  74;

KANSAS C DTWN  CLEAR     64  55  72 W3        30.16R
6HR MIN TEMP:  63; 6HR MAX TEMP:  76;

LEE`S SUMMIT   CLEAR     61  56  83 MISG      30.16R
6HR MIN TEMP:  61; 6HR MAX TEMP:  75;

ST JOSEPH      CLEAR     54  54 100 CALM      30.17R
6HR MIN TEMP:  54; 6HR MAX TEMP:  73;

CHILLICOTHE      N/A     56  56 100 CALM      30.16S
6HR MIN TEMP:  56; 6HR MAX TEMP:  77;

KIRKSVILLE     CLEAR     54  32  43 CALM      30.15R
6HR MIN TEMP:  54; 6HR MAX TEMP:  75;


$$
MOZ066>068-077>081-088>096-101>105-230700-
...SOUTHWEST MISSOURI...

CITY           SKY/WX    TMP DP  RH WIND       PRES   REMARKS
SPRINGFIELD    PTCLDY    68  64  87 N7        30.12R
6HR MIN TEMP:  68; 6HR MAX TEMP:  78;

JOPLIN         PTCLDY    70  66  87 NE6       30.12S
6HR MIN TEMP:  70; 6HR MAX TEMP:  79;

BRANSON        CLOUDY    73  68  83 N5        30.11S

$$
MOZ032>034-039>042-045>050-055>058-069>072-230700-
...CENTRAL MISSOURI...

CITY           SKY/WX    TMP DP  RH WIND       PRES   REMARKS
COLUMBIA       CLEAR     63  53  70 N9        30.13R
6HR MIN TEMP:  63; 6HR MAX TEMP:  77;

JEFFERSON CITY CLEAR     65  57  75 NW5       30.11R
6HR MIN TEMP:  64; 6HR MAX TEMP:  79;

ROLLA          CLEAR     63  59  87 N5        30.13R
6HR MIN TEMP:  63; 6HR MAX TEMP:  77;

SEDALIA        CLEAR     61  59  93 N7        30.15R
6HR MIN TEMP:  61; 6HR MAX TEMP:  78;

WHITEMAN AFB   PTCLDY    60  60  99 N3        30.13R
WARRENSBURG    CLEAR     59  54  82 NW5       30.15R
OSAGE BEACH    CLEAR     64  58  80 CALM      30.13R

$$
MOZ051-052-059>065-230700-
...EAST CENTRAL MISSOURI...

CITY           SKY/WX    TMP DP  RH WIND       PRES   REMARKS
ST LOUIS INTL  CLEAR     66  57  72 N5        30.09R
6HR MIN TEMP:  66; 6HR MAX TEMP:  79;

SPIRIT OF STL  CLEAR     61  60  97 SW3       30.09R
6HR MIN TEMP:  61; 6HR MAX TEMP:  80;

ST CHARLES     CLEAR     66  56  70 N8        30.08R
6HR MIN TEMP:  66; 6HR MAX TEMP:  78;


$$
MOZ072>076-082>087-097>100-106>115-230700-
...SOUTH CENTRAL AND SOUTHEAST MISSOURI...

CITY           SKY/WX    TMP DP  RH WIND       PRES   REMARKS
CAPE GIRARDEAU PTCLDY    69  66  90 N3        30.05R
6HR MIN TEMP:  67; 6HR MAX TEMP:  80;

FARMINGTON     PTCLDY    68  61  78 CALM      30.10R
6HR MIN TEMP:  68; 6HR MAX TEMP:  78;

POPLAR BLUFF   CLEAR     70  69  97 CALM      30.05R
6HR MIN TEMP:  70; 6HR MAX TEMP:  83;

WEST PLAINS    PTCLDY    69  64  84 N5        30.11R
6HR MIN TEMP:  68; 6HR MAX TEMP:  79;


$$



USA.gov is the U.S. government's official web portal to all federal, state and local government web resources and services.